Egegik, AK

8:03 PM AKST on February 09, 2016 (GMT -0900)
Egegik

Weather History for PAII - December, 2012

Change the Weather History Date:

Tuesday, December 11, 2012

  Actual Average (PAKN) Record (PAKN)
Temperature  
Mean Temperature 30 °F 19 °F  
Max Temperature 39 °F 27 °F 45 °F (2000)
Min Temperature 21 °F 11 °F -31 °F (1925)
Degree Days  
Heating Degree Days 35 46  
Month to date heating degree days 499  
Since 1 July heating degree days 3874  
Cooling Degree Days 0    
Month to date cooling degree days  
Year to date cooling degree days  
Moisture  
Dew Point 26 °F    
Average Humidity 88    
Maximum Humidity 100    
Minimum Humidity 80    
Precipitation  
Precipitation 0.00 in 0.04 in 0.59 in (1985)
Month to date precipitation 0.49  
Year to date precipitation 18.75  
Snow  
Snow 0.00 in 0.40 in 10.00 in (2011)
Month to date snowfall 3.9  
Since 1 July snowfall 13.7  
Snow Depth -    
Sea Level Pressure  
Sea Level Pressure 29.86 in    
Wind  
Wind Speed 11 mph (SE)    
Max Wind Speed 18 mph    
Max Gust Speed 22 mph    
Visibility 10 miles    
Events      
T = Trace of Precipitation, MM = Missing Value Source: NWS Daily Summary

Daily Weather History Graph

Daily Weather History Graph

Search for Another Location

Airport or City:

Trip Planner

Search our weather history database for the weather conditions in past years. The results will help you decide how hot, cold, wet, or windy it might be!

Date:

Astronomy

Dec. 11, 2012 Rise Set
Actual Time 10:07 AM AKST 4:38 PM AKST
Civil Twilight 9:15 AM AKST 5:30 PM AKST
Nautical Twilight 8:22 AM AKST 6:23 PM AKST
Astronomical Twilight 7:34 AM AKST 7:11 PM AKST
Moon 8:03 AM AKST (12/11) 3:38 PM AKST (12/11)
Length of Visible Light 8h 15m
Length of Day
6h 31m
Waning Crescent, 3% of the Moon is Illuminated
Dec 11
Waning Crescent
Dec 12
New
Dec 19
First Quarter
Dec 28
Full
Jan 4
Last Quarter

Hourly Weather History & Observations

Time (AKST) Temp. Windchill Dew Point Humidity Pressure Visibility Wind Dir Wind Speed Gust Speed Precip Events Conditions
12:16 AM 21.2 °F 8.3 °F 17.6 °F 86% 30.12 in 10.0 mi West 13.8 mph 20.7 mph N/A   Overcast
12:36 AM 21.2 °F 7.8 °F 17.6 °F 86% 30.13 in 10.0 mi West 15.0 mph 20.7 mph N/A   Overcast
12:56 AM 21.2 °F 8.9 °F 15.8 °F 80% 30.13 in 10.0 mi West 12.7 mph - N/A   Overcast
1:16 AM 21.2 °F 10.9 °F 17.6 °F 86% 30.12 in 10.0 mi West 9.2 mph - N/A   Overcast
1:36 AM 21.2 °F 10.1 °F 15.8 °F 80% 30.11 in 10.0 mi WNW 10.4 mph - N/A   Overcast
1:56 AM 21.2 °F 8.9 °F 15.8 °F 80% 30.12 in 10.0 mi WSW 12.7 mph - N/A   Overcast
2:16 AM 21.2 °F 8.9 °F 17.6 °F 86% 30.12 in 10.0 mi WSW 12.7 mph - N/A   Overcast
2:36 AM 21.2 °F 8.3 °F 15.8 °F 80% 30.13 in 10.0 mi WSW 13.8 mph - N/A   Overcast
2:56 AM 23.0 °F 11.1 °F 17.6 °F 80% 30.13 in 10.0 mi West 12.7 mph - N/A   Overcast
3:16 AM 23.0 °F 11.7 °F 17.6 °F 80% 30.12 in 10.0 mi West 11.5 mph - N/A   Overcast
3:36 AM 23.0 °F 13.1 °F 17.6 °F 80% 30.11 in 10.0 mi WSW 9.2 mph - N/A   Overcast
3:56 AM 23.0 °F 13.9 °F 19.4 °F 86% 30.10 in 10.0 mi West 8.1 mph - N/A   Overcast
4:16 AM 23.0 °F 18.4 °F 19.4 °F 86% 30.11 in 10.0 mi SW 3.5 mph - N/A   Overcast
4:36 AM 24.8 °F - 21.2 °F 86% 30.10 in 10.0 mi Calm Calm - N/A   Overcast
4:56 AM 23.0 °F 17.0 °F 19.4 °F 86% 30.07 in 10.0 mi ESE 4.6 mph - N/A   Overcast
5:16 AM 23.0 °F 15.8 °F 19.4 °F 86% 30.07 in 10.0 mi SE 5.8 mph - N/A   Overcast
5:36 AM 23.0 °F 14.7 °F 19.4 °F 86% 30.06 in 10.0 mi ESE 6.9 mph - N/A   Overcast
5:56 AM 23.0 °F 13.9 °F 19.4 °F 86% 30.05 in 10.0 mi ESE 8.1 mph - N/A   Overcast
6:16 AM 23.0 °F 13.1 °F 19.4 °F 86% 30.04 in 10.0 mi ESE 9.2 mph - N/A   Overcast
6:36 AM 23.0 °F 13.9 °F 19.4 °F 86% 30.04 in 10.0 mi ESE 8.1 mph - N/A   Overcast
6:56 AM 23.0 °F 13.9 °F 19.4 °F 86% 30.02 in 10.0 mi ESE 8.1 mph - N/A   Overcast
7:16 AM 23.0 °F 14.7 °F 19.4 °F 86% 30.01 in 10.0 mi East 6.9 mph - N/A   Overcast
7:36 AM 23.0 °F 13.9 °F 19.4 °F 86% 30.01 in 10.0 mi East 8.1 mph - N/A   Overcast
7:56 AM 23.0 °F 13.1 °F 19.4 °F 86% 30.00 in 10.0 mi East 9.2 mph - N/A   Overcast
8:16 AM 23.0 °F 13.1 °F 19.4 °F 86% 30.00 in 10.0 mi East 9.2 mph - N/A   Overcast
8:36 AM 24.8 °F 15.3 °F 19.4 °F 80% 29.97 in 10.0 mi ESE 9.2 mph - N/A   Overcast
8:56 AM 24.8 °F 15.3 °F 21.2 °F 86% 29.98 in 10.0 mi ESE 9.2 mph - N/A   Overcast
9:16 AM 24.8 °F 16.1 °F 21.2 °F 86% 29.98 in 8.0 mi ESE 8.1 mph - N/A   Overcast
9:36 AM 24.8 °F 16.1 °F 21.2 °F 86% 29.98 in 8.0 mi ESE 8.1 mph - N/A   Overcast
9:56 AM 24.8 °F 16.1 °F 21.2 °F 86% 29.97 in 4.0 mi ESE 8.1 mph - N/A   Overcast
10:16 AM 26.6 °F 17.5 °F 23.0 °F 86% 29.96 in 4.0 mi ESE 9.2 mph - N/A   Overcast
10:36 AM 26.6 °F 16.8 °F 23.0 °F 86% 29.95 in 3.0 mi ESE 10.4 mph - N/A   Overcast
10:56 AM 26.6 °F 16.8 °F 24.8 °F 93% 29.93 in 8.0 mi ESE 10.4 mph - N/A   Overcast
11:16 AM 26.6 °F 14.3 °F 24.8 °F 93% 29.91 in 10.0 mi ESE 16.1 mph 19.6 mph N/A   Overcast
11:36 AM 26.6 °F 14.3 °F 24.8 °F 93% 29.90 in 10.0 mi ESE 16.1 mph - N/A   Overcast
11:56 AM 28.4 °F 15.8 °F 26.6 °F 93% 29.88 in 10.0 mi SE 18.4 mph - N/A   Overcast
12:16 PM 28.4 °F 16.6 °F 26.6 °F 93% 29.88 in 10.0 mi SE 16.1 mph 21.9 mph N/A   Overcast
12:36 PM 30.2 °F 18.5 °F 26.6 °F 86% 29.87 in 10.0 mi SE 17.3 mph - N/A   Overcast
12:56 PM 30.2 °F 18.1 °F 26.6 °F 86% 29.86 in 10.0 mi SE 18.4 mph - N/A   Overcast
1:16 PM 30.2 °F 18.5 °F 26.6 °F 86% 29.84 in 9.0 mi SE 17.3 mph - N/A   Overcast
1:36 PM 30.2 °F 18.1 °F 28.4 °F 93% 29.82 in 10.0 mi SE 18.4 mph - N/A   Overcast
1:56 PM 30.2 °F 18.9 °F 28.4 °F 93% 29.81 in 10.0 mi SE 16.1 mph - N/A   Overcast
2:16 PM 32.0 °F 21.6 °F 28.4 °F 87% 29.80 in 10.0 mi SE 15.0 mph - N/A   Overcast
2:36 PM 32.0 °F 23.6 °F 28.4 °F 87% 29.79 in 10.0 mi SSE 10.4 mph - N/A   Overcast
2:56 PM 33.8 °F 25.3 °F 30.2 °F 87% 29.77 in 10.0 mi SSE 11.5 mph - N/A   Overcast
3:16 PM 33.8 °F 24.8 °F 32.0 °F 93% 29.76 in 10.0 mi SSE 12.7 mph - N/A   Overcast
3:36 PM 35.6 °F 27.1 °F 33.8 °F 93% 29.74 in 10.0 mi SSE 12.7 mph - N/A   Mostly Cloudy
3:56 PM 35.6 °F 27.1 °F 33.8 °F 93% 29.73 in 10.0 mi SSE 12.7 mph - N/A   Overcast
4:16 PM 35.6 °F 26.2 °F 33.8 °F 93% 29.73 in 10.0 mi SSE 15.0 mph - N/A   Overcast
4:36 PM 35.6 °F 26.6 °F 33.8 °F 93% 29.71 in 10.0 mi SE 13.8 mph - N/A   Overcast
4:56 PM 35.6 °F 27.1 °F 35.6 °F 100% 29.70 in 10.0 mi SE 12.7 mph - N/A   Overcast
5:16 PM 35.6 °F 26.6 °F 33.8 °F 93% 29.69 in 10.0 mi SE 13.8 mph - N/A   Overcast
5:36 PM 35.6 °F 26.2 °F 33.8 °F 93% 29.68 in 10.0 mi SE 15.0 mph - N/A   Overcast
5:56 PM 35.6 °F 26.2 °F 33.8 °F 93% 29.67 in 10.0 mi SE 15.0 mph - N/A   Overcast
6:16 PM 35.6 °F 27.1 °F 33.8 °F 93% 29.66 in 10.0 mi SE 12.7 mph - N/A   Overcast
6:36 PM 35.6 °F 26.6 °F 33.8 °F 93% 29.65 in 10.0 mi SE 13.8 mph - N/A   Overcast
6:56 PM 35.6 °F 27.5 °F 33.8 °F 93% 29.64 in 10.0 mi SE 11.5 mph - N/A   Overcast
7:16 PM 35.6 °F 26.6 °F 33.8 °F 93% 29.63 in 10.0 mi SE 13.8 mph - N/A   Overcast
7:36 PM 37.4 °F 28.9 °F 33.8 °F 87% 29.62 in 10.0 mi SE 13.8 mph - N/A   Overcast
7:56 PM 37.4 °F 29.3 °F 33.8 °F 87% 29.61 in 10.0 mi SE 12.7 mph - N/A   Overcast
8:16 PM 37.4 °F 29.8 °F 33.8 °F 87% 29.60 in 10.0 mi SE 11.5 mph - N/A   Overcast
8:36 PM 37.4 °F 29.8 °F 33.8 °F 87% 29.59 in 10.0 mi SE 11.5 mph - N/A   Overcast
8:56 PM 39.2 °F 32.5 °F 35.6 °F 87% 29.59 in 10.0 mi SE 10.4 mph - N/A   Overcast
9:16 PM 37.4 °F 29.8 °F 35.6 °F 93% 29.57 in 10.0 mi SE 11.5 mph - N/A   Overcast
9:36 PM 39.2 °F 34.2 °F 35.6 °F 87% 29.58 in 10.0 mi SE 6.9 mph - N/A   Overcast
9:56 PM 39.2 °F 35.9 °F 37.4 °F 93% 29.57 in 10.0 mi SE 4.6 mph - N/A   Overcast
10:16 PM 37.4 °F 33.8 °F 35.6 °F 93% 29.57 in 9.0 mi ESE 4.6 mph - N/A   Overcast
10:36 PM 37.4 °F 30.8 °F 35.6 °F 93% 29.55 in 8.0 mi SE 9.2 mph - N/A   Overcast
10:56 PM 37.4 °F 29.8 °F 35.6 °F 93% 29.56 in 10.0 mi SE 11.5 mph - N/A   Overcast
11:16 PM 37.4 °F 29.8 °F 35.6 °F 93% 29.54 in 10.0 mi ESE 11.5 mph - N/A   Overcast
11:56 PM 39.2 °F 32.5 °F 37.4 °F 93% 29.52 in 7.0 mi South 10.4 mph - N/A   Overcast